Skip Page Navigation
NASA JPL Caltech
NASA Logo - Jet Propulsion Laboratory + View the NASA Portal
+ Center for Near-Earth Object Studies
JPL Home Earth Solar System Stars & Galaxies Technology
JPL Solar System Dynamics
BODIES ORBITS EPHEMERIDES TOOLS PHYSICAL DATA DISCOVERY FAQ SITE MAP
JPL Small-Body Database Browser
Search: [ help ]  
175200 (2005 EV315)
Classification: Main-belt Asteroid          SPK-ID: 2175200
Ephemeris | Orbit Diagram | Orbital Elements | Mission Design | Physical Parameters | Discovery Circumstances | Close-Approach Data ]

[ show orbit diagram ]
Orbital Elements at Epoch 2459200.5 (2020-Dec-17.0) TDB
Reference: JPL 18 (heliocentric ecliptic J2000)
 Element Value Uncertainty (1-sigma)   Units 
e .194702159675111 4.1349e-08  
a 2.405187243252672 1.0361e-08 au
q 1.93689209256835 1.0373e-07 au
i 2.210566946997029 4.0924e-06 deg
node 125.5379160200159 9.4365e-05 deg
peri 196.58349392492 9.4808e-05 deg
M 317.4954640882756 9.4496e-06 deg
tp 2459361.362399439244
(2021-May-26.86239944)
3.6207e-05 TDB
period 1362.453737135235
3.73
8.8036e-06
2.41e-08
d
yr
n .2642291552276515 1.7073e-09 deg/d
Q 2.873482393936994 1.2378e-08 au
  Orbit Determination Parameters
   # obs. used (total)      507  
   data-arc span      8951 days (24.51 yr)  
   first obs. used      1995-11-15  
   last obs. used      2020-05-18  
   planetary ephem.      DE441  
   SB-pert. ephem.      SB441-N16  
   condition code      0  
   norm. resid. RMS      .51394  
   source      ORB  
   producer      Otto Matic  
   solution date      2021-Apr-13 21:04:26  

Additional Information
 Earth MOID = .922484 au 
 Jupiter MOID = 2.44437 au 
 T_jup = 3.496 
[ show covariance matrix ]

Ephemeris | Orbit Diagram | Orbital Elements | Mission Design | Physical Parameters | Discovery Circumstances | Close-Approach Data ]

Physical Parameter Table
Parameter Symbol Value Units Sigma Reference Notes
absolute magnitude H 16.63   n/a E2021B55  

175200 (2005 EV315)          Discovered 2005-Mar-11 by Spacewatch at Kitt Peak
Reference: 20080122/Numbers.arcLast Updated: 2008-01-28

[ show close-approach data ]
Ephemeris | Orbit Diagram | Orbital Elements | Mission Design | Physical Parameters | Discovery Circumstances | Close-Approach Data ]
ABOUT SSD CREDITS/AWARDS PRIVACY/COPYRIGHT GLOSSARY LINKS
FirstGov 2021-May-16 05:08 UT
(server date/time)  
NASA Home Page
Site Manager:   Ryan S. Park
Webmaster  Alan B. Chamberlin